Montgomery, NY

11:09 AM EDT on March 30, 2017 (GMT -0400)
Orange County

Weather History for KMGJ - November, 2012

Change the Weather History Date:

Friday, November 23, 2012

  Actual Average (KSWF) Record (KSWF)
Temperature  
Mean Temperature 42 °F -  
Max Temperature 59 °F 46 °F 64 °F (1999)
Min Temperature 24 °F 29 °F 14 °F (1974)
Degree Days  
Heating Degree Days 24    
Moisture  
Dew Point 32 °F    
Average Humidity 72    
Maximum Humidity 93    
Minimum Humidity 39    
Precipitation  
Precipitation 0.02 in - - ()
Sea Level Pressure  
Sea Level Pressure 29.89 in    
Wind  
Wind Speed 3 mph (SSW)    
Max Wind Speed 18 mph    
Max Gust Speed 23 mph    
Visibility 9 miles    
Events Rain    
Averages and records for this station are not official NWS values.
T = Trace of Precipitation, MM = Missing Value Source: NWS Daily Summary

Daily Weather History Graph

Daily Weather History Graph

Search for Another Location

Airport or City:

Trip Planner

Search our weather history database for the weather conditions in past years. The results will help you decide how hot, cold, wet, or windy it might be!

Date:

Astronomy

Nov. 23, 2012 Rise Set
Actual Time 6:55 AM EST 4:31 PM EST
Civil Twilight 6:25 AM EST 5:01 PM EST
Nautical Twilight 5:51 AM EST 5:35 PM EST
Astronomical Twilight 5:18 AM EST 6:08 PM EST
Moon 1:47 PM EST (11/23) 2:09 AM EST (11/23)
Length of Visible Light 10h 36m
Length of Day
9h 35m
Waxing Gibbous, 79% of the Moon is Illuminated
Nov 23
Waxing Gibbous
Nov 28
Full
Dec 6
Last Quarter
Dec 13
New
Dec 20
First Quarter

Hourly Weather History & Observations

Time (EST) Temp. Windchill Dew Point Humidity Pressure Visibility Wind Dir Wind Speed Gust Speed Precip Events Conditions
12:54 AM 28.0 °F - 24.1 °F 85% 30.11 in 10.0 mi Calm Calm - N/A   Clear
1:54 AM 27.0 °F - 24.1 °F 89% 30.11 in 10.0 mi Calm Calm - N/A   Clear
2:54 AM 26.1 °F - 23.0 °F 88% 30.09 in 10.0 mi Calm Calm - N/A   Clear
3:54 AM 26.1 °F - 24.1 °F 92% 30.08 in 9.0 mi Calm Calm - N/A   Clear
4:54 AM 25.0 °F - 23.0 °F 92% 30.07 in 6.0 mi Calm Calm - N/A   Clear
5:54 AM 24.1 °F - 21.9 °F 91% 30.05 in 8.0 mi Calm Calm - N/A   Clear
6:54 AM 24.1 °F - 21.0 °F 88% 30.04 in 8.0 mi Calm Calm - N/A   Clear
7:54 AM 28.0 °F 24.2 °F 25.0 °F 88% 30.02 in 8.0 mi SE 3.5 mph - 0.00 in   Clear
8:54 AM 39.0 °F - 34.0 °F 82% 30.00 in 9.0 mi Calm Calm - 0.00 in   Clear
9:54 AM 42.1 °F 38.4 °F 36.0 °F 79% 29.99 in 10.0 mi SW 5.8 mph - N/A   Clear
10:54 AM 50.0 °F - 37.9 °F 63% 29.94 in 10.0 mi SW 11.5 mph - N/A   Clear
11:54 AM 53.1 °F - 34.0 °F 48% 29.88 in 10.0 mi SSW 18.4 mph 23.0 mph N/A   Clear
12:54 PM 57.0 °F - 33.1 °F 40% 29.83 in 10.0 mi SSW 16.1 mph 23.0 mph N/A   Clear
1:54 PM 59.0 °F - 34.0 °F 39% 29.79 in 10.0 mi SSW 8.1 mph - N/A   Clear
2:54 PM 57.9 °F - 34.0 °F 41% 29.76 in 10.0 mi SSW 9.2 mph - N/A   Clear
3:54 PM 54.0 °F - 34.0 °F 47% 29.75 in 10.0 mi South 5.8 mph - N/A   Partly Cloudy
4:54 PM 54.0 °F - 34.0 °F 47% 29.75 in 10.0 mi SSW 4.6 mph - N/A   Overcast
5:54 PM 53.1 °F - 36.0 °F 52% 29.74 in 10.0 mi SSW 6.9 mph - N/A   Overcast
6:54 PM 52.0 °F - 36.0 °F 54% 29.74 in 10.0 mi SW 5.8 mph - N/A   Overcast
7:54 PM 48.0 °F - 42.1 °F 80% 29.73 in 10.0 mi South 4.6 mph - 0.02 in Rain Light Rain
8:54 PM 45.0 °F - 43.0 °F 93% 29.70 in 9.0 mi Calm Calm - 0.00 in   Overcast
9:54 PM 44.1 °F - 42.1 °F 93% 29.68 in 6.0 mi Calm Calm - N/A   Overcast
11:54 PM 43.0 °F 39.5 °F 37.0 °F 80% 29.65 in 10.0 mi SW 5.8 mph - N/A   Clear